Flag for Brazil Weather past 2 weeks in Florianópolis, Santa Catarina, Brazil

Now
79 °F

Passing clouds.


Feels Like: 82 °F
Forecast: 76 / 85 °F
Wind: 6 mph from North

Location: Florianopolis Aeroporto

Current Time: Mar 5, 2015 at 4:37:57 AM

Latest Report: Mar 5, 2015 at 4:00 AM


Visibility: N/A

Pressure: 29.89 "Hg

Humidity: 84%

Dew point: 73 °F

Location of FlorianópolisLocation

Historic Weather in Florianópolis — Graph

°F

Florianópolis temperature yesterday

Maximum temperature yesterday: 88 °F (at 1:00 PM)
Minimum temperature yesterday: 75 °F (at 5:00 AM)
Average temperature yesterday: 81 °F

Past Weeks' High & Low Weather Summary

 TemperatureHumidityPressure
High91 °F (Feb 25, 2:00 PM)100% (Feb 18, 5:00 AM)30.15 "Hg (Feb 18, 5:00 AM)
Low68 °F (Mar 1, 5:00 AM)41% (Feb 25, 2:00 PM)29.65 "Hg (Feb 19, 4:00 PM)
Average79 °F75%29.95 "Hg
* Reported Feb 18 4:00 AM — Mar 5 3:00 AM, Florianópolis, Weather by CustomWeather, © 2015

Note: Actual official high and low records may vary slightly from our data, if they occured in-between our weather recording intervals... More about our weather records

Advertising

Florianópolis weather history for previous 24 hours

 ConditionsComfort  
Time TempWeatherWind HumidityBarometerVisibility
3:00 AM
Thu, Mar 5
79 °FPassing clouds.7 mph84%29.92 "HgN/A
2:00 AM79 °FPassing clouds.8 mph84%29.92 "HgN/A
1:00 AM79 °FPassing clouds.8 mph84%29.95 "HgN/A
12:00 AM79 °FPassing clouds.9 mph84%29.98 "HgN/A
11:00 PM
Wed, Mar 4
81 °FPassing clouds.10 mph100%29.98 "HgN/A
10:00 PM81 °FPassing clouds.10 mph79%29.98 "HgN/A
9:00 PM81 °FPassing clouds.12 mph74%29.95 "HgN/A
7:00 PM81 °FPassing clouds.10 mph74%29.92 "HgN/A
6:00 PM82 °FPassing clouds.13 mph66%29.89 "HgN/A
5:00 PM84 °FPassing clouds.13 mph62%29.89 "HgN/A
4:00 PM86 °FPassing clouds.15 mph59%29.92 "HgN/A
3:00 PM86 °FPassing clouds.15 mph59%29.92 "HgN/A
2:00 PM86 °FPassing clouds.16 mph55%29.95 "HgN/A
1:00 PM88 °FPassing clouds.15 mph52%29.95 "HgN/A
12:00 PM86 °FPassing clouds.14 mph55%29.98 "HgN/A
11:00 AM84 °FPassing clouds.14 mph62%29.98 "HgN/A
10:00 AM82 °FPassing clouds.13 mph70%30.01 "HgN/A
8:00 AM79 °FPassing clouds.8 mph79%30.01 "HgN/A
7:00 AM77 °FPassing clouds.7 mph83%30.01 "HgN/A
6:00 AM75 °FPassing clouds.5 mph89%29.98 "HgN/A
5:00 AM75 °FPassing clouds.6 mph89%29.98 "HgN/A
4:00 AM77 °FPassing clouds.5 mph79%29.95 "HgN/A
Weather by CustomWeather, © 2015

See weather overviewHow to use our weather pages